星链-1969 (STARLINK-1969 )

导读 | 豆包AI

STARLINK-1969是美国SpaceX公司星链星座V1.0批次的一颗互联网卫星,于2021年2月4日由猎鹰9号火箭发射升空,运行在近地轨道。作为星链大规模组网阶段的卫星,它配备氪离子推进系统与相控阵天线,可为全球偏远、网络缺失区域提供高速宽带互联网接入,属于星链第一代星座,设计寿命约5年,是SpaceX构建全球卫星互联网的组成单元。

Basic Information
目录编号:
47570
目录名称:
STARLINK-1969
国际标识:
2021-009Y
轨道中心:
EARTH
卫星名称:
星链-1969
卫星全名:
星链-1969 (STARLINK-1969 )
卫星状态:
已陨落 最后检测时间 2024-09-18
发射日期:
2021-02-04 UTC
国别 :
美国 (US)
星等 :
--
Orbit Information
数据来源 国际轨道数据
星历时间: 2024-09-17T23:51:58+0800
轨道信息已过期542天
半长轴: 6568.813km
偏心率: 0.0002476
轨道倾角: 53.033°
近地点辐角 284.178°
升交点赤经 193.218°
平近点角 168.401°
近地点: 189.051km
远地点: 192.305km
周期: 88.306分钟
每日圈数: 16.306939
Detailed Information
固有亮度:
5
最大亮度:
2.5
卫星平台:
Starlink V1.0
覆盖范围:
全球
运营商:
太空探索技术公司
运营商所在国:
美国
制造商(研发单位):
太空探索技术公司
制造商所在国:
美国
使用方式:
暂无
Satellite Introduction
星链(Starlink)计划是由太空探索技术公司(SpaceX)提出的一个巨型低轨卫星互联网星座项目,计划在2019年至2024年间在太空搭建由约1.2万颗卫星组成的“星链”网络,其中1584颗将部署在地球上空550千米处的近地轨道,并从2020年开始工作。该卫星仍在工作。